Location: ?????????
(55.6553°N, 38.9075°E)
Time: 21:39:58
(UTC+00:00)

Cosmos 1953 - Pass Details

Date: 18 October 2019
Orbit: 538 x 559 km, 82.5° (Epoch: 21 November)

Event Time Altitude Azimuth Distance (km) Brightness Sun altitude
Rises 03:18:09 0° 336° (NNW) 2,751 5.6 -6.6°
Reaches altitude 10° 03:21:00 10° 315° (NW) 1,845 4.5 -6.2°
Maximum altitude 03:23:30 16° 277° (W) 1,489 3.9 -5.9°
Drops below altitude 10° 03:25:58 10° 239° (WSW) 1,828 4.5 -5.5°
Sets 03:28:46 0° 217° (SW) 2,711 5.6 -5.1°
